Other Public Products
Issued by NWS Grand Forks, ND

Home | Current Version | Previous Version | Graphics & Text | Print | Product List | Glossary On
Versions: 1 2 3 4 5 6 7 8 9 10 11 12 13 14 15 16 17 18 19 20 21 22 23 24 25 26 27 28 29 30 31 32 33 34 35 36 37 38 39 40 41 42 43 44 45 46 47 48 49 50
000
FPUS83 KFGF 241431
OPUFGF
PRAIRIE TO PINES WEATHER ROUNDUP
NATIONAL WEATHER SERVICE EASTERN NORTH DAKOTA/GRAND FORKS ND
800 AM CST WED DEC 24 2014

 **SATELLITE DATA USED TO AUGMENT SKY COVER AT AUTOMATED STATIONS**
 *****  WEATHER ACROSS EASTERN NORTH DAKOTA  *****

CITY           SKY/WX    TMP DP  RH WIND       PRES   REMARKS
GRAND FORKS    CLOUDY    27  25  93 W10       29.81F WCI  17
GRAND FORKS AF CLOUDY    25  25 100 W9        29.83F WCI  15
GRAND CITY NWS   N/A     27 N/A N/A W6          N/A  WCI  20
BUXTON           N/A     28  26  95 SW3         N/A
DEVILS LAKE    CLOUDY    25  23  93 S10       29.73F WCI  15
FARGO          CLOUDY    29  25  85 W8        29.84F WCI  21
WAHPETON ARPT  CLOUDY    30  27  86 NW9       29.85F WCI  22
$$

 *****  WEATHER ACROSS CENTRAL AND WESTERN NORTH DAKOTA  *****

CITY           SKY/WX    TMP DP  RH WIND       PRES   REMARKS
JAMESTOWN      CLOUDY    25  23  92 SW8       29.80F WCI  16
BISMARCK       CLOUDY    24  22  91 SE7       29.77F FOG     WCI  16
MINOT          CLOUDY    26  23  88 S12       29.67F WCI  16
MINOT AFB      CLOUDY    26  26  99 S13       29.66F WCI  15
GARRISON         N/A     24  23  96 S9        29.70F WCI  14
WILLISTON      CLOUDY    24  20  84 SW6       29.64F WCI  17
DICKINSON      CLOUDY    25  18  74 S16       29.65F WCI  12
HETTINGER      CLOUDY    23  18  81 CALM      29.72F
$$

 *****  OTHER OBSERVATIONS NORTHEAST NORTH DAKOTA  *****

CITY           SKY/WX    TMP DP  RH WIND       PRES   REMARKS
WALHALLA         N/A     25  25 100 SW7       29.77F WCI  17
LANGDON        CLOUDY    23  21  93 SW14      29.72F FOG     WCI  11
CAVALIER       CLOUDY    25  23  93 SW6       29.78F WCI  18
GRAFTON        NOT AVBL
CANDO          CLOUDY    25  25 100 S7        29.73F FOG     WCI  17
FORT TOTTEN      N/A     24  24  98 S5        29.95  WCI  18
ROLLA          FOG       23  23 100 S15       29.67F VSB 1/2 WCI  10
RUGBY          CLOUDY    27  27 100 S10       29.70F WCI  17
 ***** THE ABOVE OBSERVATIONS ARE NON NWS ARE NOT QUALITY
        CONTROLLED AND MAY MIS-REPORT RAIN FOR SNOW...
$$

 *****  OTHER OBSERVATIONS SOUTHEAST NORTH DAKOTA *****

CITY           SKY/WX    TMP DP  RH WIND       PRES   REMARKS
COOPERSTOWN    NOT AVBL
VALLEY CITY    CLOUDY    23  23 100 W6        29.81F FOG     WCI  16
OAKES            N/A     25  25 100 W7        29.84F FOG     WCI  17
GWINNER        CLOUDY    28  28 100 CALM      29.86F
SHEYENNE NWR     N/A     26  23  89 W7        29.95  WCI  18
BUFFALO        NOT AVBL
WYNDMERE         N/A     27  27 100 W9          N/A  WCI  17
 ***** THE ABOVE OBSERVATIONS ARE NON NWS ARE NOT QUALITY
       CONTROLLED AND MAY MIS-REPORT RAIN FOR SNOW...
$$

  *****  WEATHER ACROSS NORTHERN MINNESOTA  *****

CITY           SKY/WX    TMP DP  RH WIND       PRES   REMARKS
FLAG ISLAND    CLOUDY    30  28  93 CALM      29.76F
WARROAD        CLOUDY    30  27  86 CALM      29.78F
ROSEAU         CLOUDY    30  27  86 CALM      29.78F
HALLOCK        CLOUDY    28  27  93 W9        29.79F WCI  20
THF RVR FALLS  CLOUDY    28  28 100 CALM      29.80F
HALSTAD          N/A     29  25  86 W8          N/A  WCI  21
FOSSTON        CLOUDY    28  27  93 CALM      29.80F FOG
BAUDETTE       CLOUDY    32  30  92 NW3       29.77F
WASKISH        CLOUDY    32  32 100 CALM      29.78S FOG
CROOKSTON      CLOUDY    28  28 100 W5        29.83F WCI  23
$$
  *****  WEATHER ACROSS CENTRAL AND WEST MINNESOTA  *****

CITY           SKY/WX    TMP DP  RH WIND       PRES   REMARKS
BEMIDJI        LGT SNOW  30  30 100 NW7       29.78F VSB 3/4 WCI  23
PARK RAPIDS    CLOUDY    31  29  92 NW6       29.78F
WADENA         CLOUDY    28  28 100 NW5       29.80S WCI  23
DETROIT LAKES  FOG       30  30 100 NW5       29.81F VSB<1/4
MOORHEAD       DRIZZLE   30  30 100 NW7       29.86S WCI  23
FERGUS FALLS   CLOUDY    28  28 100 NW12      29.85F WCI  18
ELBOW LAKE     CLOUDY    28  28 100 NW9       29.82F FOG     WCI  20
MORRIS MN      CLOUDY    30  28  93 NW10      29.83R WCI  21
STAPLES        CLOUDY    30  30 100 N5        29.79F
WHEATON        CLOUDY    27  27 100 NW9       29.88R WCI  17
$$
  *****  WEATHER ELSEWHERE ACROSS MINNESOTA  *****

CITY           SKY/WX    TMP DP  RH WIND       PRES   REMARKS
DULUTH         CLOUDY    33  29  85 N8        29.73F
INTRNTL FALLS  FOG       32  31  96 CALM      29.75F VSB 1/4
ELY            LGT SNOW  30  28  93 CALM      29.75F
CLOQUET        CLOUDY    34  30  86 N5        29.75S
BRAINERD       CLOUDY    32  30  92 CALM      29.79F
HIBBING        CLOUDY    33  30  88 N6        29.76S FOG
ALEXANDRIA     CLOUDY    30  29  96 NW8       29.80F WCI  22
SAINT CLOUD    CLOUDY    35  30  82 NW5       29.79F
MINNEAPOLIS    CLOUDY    34  31  88 N10G18    29.77S
$$

  *****  WEATHER ACROSS SOUTH DAKOTA  *****

CITY           SKY/WX    TMP DP  RH WIND       PRES   REMARKS
SIOUX FALLS    FRZ DRZL  28  27  96 NW12      29.87S WCI  18
BROOKINGS      NOT AVBL
WATERTOWN      CLOUDY    25  23  92 W10       29.84F WCI  15
HURON          CLOUDY    24  23  96 NW7       29.90F WCI  16
SISSETON         N/A     27  25  92 NW13      29.86S WCI  16
ABERDEEN       CLOUDY    26  23  88 W5        29.88F WCI  20
MITCHELL       CLOUDY    25  24  96 NW12      29.92S WCI  14
PIERRE         PTCLDY    13  11  92 SW5       29.84F WCI   5
MOBRIDGE       PTCLDY    18  15  88 SE6       29.79F WCI  10
RAPID CITY     CLEAR     13  10  88 CALM      29.78F
$$

  *****  SOME WEATHER IN NEARBY STATES *****

CITY           SKY/WX    TMP DP  RH WIND       PRES   REMARKS
GLASGOW MT     CLOUDY    32  27  81 S3        29.59F
GREAT FALLS MT CLOUDY    43  29  57 SW17G23   29.59F
CHEYENNE WY    CLEAR     27  11  51 W18G25    29.84F WCI  14
SCOTTSBLUFF NE CLEAR      9   7  92 CALM      29.88F
OMAHA NE       CLOUDY    33  31  92 NW10      29.88S WCI  25
DES MOINES IA  CLOUDY    35  32  88 N10       29.77F
DAVENPORT IA   FOG       34  33  96 NW8       29.67S VSB 1
CHICAGO IL     CLOUDY    38  33  82 CALM      29.62R
EAU CLAIRE WI  CLOUDY    34  30  85 N6        29.71S
LA CROSSE WI   CLOUDY    35  32  88 NW6       29.70F
$$

  *****  SOME NATIONAL WEATHER *****

CITY           SKY/WX    TMP DP  RH WIND       PRES   REMARKS
LA GUARDIA NY  FOG       43  43 100 NE10      29.97S VSB 1/2
RALEIGH NC     LGT RAIN  50  46  87 CALM      29.83F FOG
ATLANTA GA     LGT RAIN  51  50  96 E9        29.68F VSB 1/4
NEW ORLEANS LA MOSUNNY   49  43  80 NW14      29.88R
OKLAHOMA CITY  MOCLDY    36  27  69 NW10      29.98S
ALBUQUERQUE NM CLEAR     18  11  74 E3        30.19R
SALT LAKE CITY PTCLDY    29  20  69 SE10      30.13F WCI  20
LOS ANGELES CA CLEAR     61  37  41 NE5       30.08R
BOISE ID       PTCLDY    30  25  81 CALM      29.90F
SEATTLE WA     CLOUDY    39  37  92 CALM      29.93F
$$

*** WEATHER ACROSS MANITOBA...SASKATCHEWAN AND ONTARIO ***
                ***ONTARIO***

CITY           SKY/WX    TMP DP  RH WIND       PRES   REMARKS
GERALDTON      FLURRIES  27  25  93 NE7       29.75F WCI  19
THUNDER BAY    FLURRIES  32  32 100 N2        29.75
SIOUX LOOKOUT  FLURRIES  28  28 100 CALM      29.77
TORONTO        DRIZZLE   45  45 100 SE3       29.65  FOG
BIG TROUT LK   FLURRIES  18  18 100 E5        29.83F WCI  11
PICKLE LAKE    FLURRIES  23  21  93 E6        29.78F WCI  16
DRYDEN         FOG       28  28 100 E5        29.75F VSB 1   WCI  23
KENORA         LGT SNOW  30  30 100 SW3       29.76  VSB 3/4
$$
                *** MANITOBA***

CITY           SKY/WX    TMP DP  RH WIND       PRES   REMARKS
BRANDON        FOG       23  21  93 SE7       29.67  VSB 1/2 WCI  15
DAUPHIN        CLOUDY    18  16  93 SE5       29.65F WCI  11
ISLAND LAKE    FLURRIES  21  21 100 SE7       29.75F WCI  13
PILOT MOUND      N/A     21  21 100 S9          N/A  WCI  11
THE PAS        CLOUDY    21  21 100 SE7       29.62  FOG     WCI  13
THOMPSON       LGT SNOW  18  16  93 SE3       29.71  FOG
WINNIPEG       CLOUDY    27  23  86 SW6       29.78  WCI  20
LYNN LAKE      CLOUDY    19  19 100 S7        29.60F WCI  10
CHURCHILL      FLURRIES  16  14  93 S12       29.81  WCI   3
GILLAM         FLURRIES  18  16  93 SE6       29.79  WCI   9
$$
                ***SASKATCHEWAN***

CITY           SKY/WX    TMP DP  RH WIND       PRES   REMARKS
ESTEVAN        FLURRIES  28  23  80 S16G22    29.55F WCI  17
KINDERSLEY     MOCLDY    19  18  93 W6        29.55  WCI  11
LLOYDMINSTER   MOCLDY    23  21  93 W12       29.49  WCI  12
PRINCE ALBERT  FLURRIES  25  23  93 E3        29.49
REGINA         MOCLDY    25  23  93 SW7       29.49  WCI  17


USA.gov is the U.S. government's official web portal to all federal, state and local government web resources and services.